Погода в Ватнаволоке

Россия / Республика Карелия     62°18′19″N   34°35′34″E
темп.,
°C
ветер,
м/с
пор.,
м/с
влажн.,
%
обл.,
%
осадки,
мм/ч
давл.,
гПа
погр.,
м
10 апреля, сб
сб1000:00+2ю71896100 0.5 10051378
03:00+2ююз71797100 1.0 10051306
06:00+2ююз61595100 0.6 10061388
09:00+2ююз61596100 1.3 10071327
12:00+4ююз61382100 0.4 10081419
15:00+5ююз61379100 1.5 10081450
18:00+3ююз51291100 1.2 10081162
21:00+2ююз51281100 1.6 10091057
11 апреля, вс
вс1100:00+1юз5137913 0.0 1011733
03:00−1юз5138418 0.0 1014677
06:00−1юз514875 0.0 1015582
09:00+3юз716745 0.0 1017743
12:00+6юз615685 0.0 10201792
15:00+6зюз612665 0.0 10231626
18:00+6зюз511675 0.0 10251169
21:00+2юз31082100 0.0 1027310
12 апреля, пн
пн1200:00+1юз2885100 0.0 1029171
03:00+1юз2584100 0.0 103192
06:000ю1181100 0.0 103010
09:00+2юв3775100 0.0 1029218
12:00+2юв4985100 0.1 1027272
15:00+6ююв3686100 0.1 1025186
18:00+8ююв2588100 0.0 102396
21:00+7ююв3790100 0.0 1023110
13 апреля, вт
вт1300:00+5ююв289572 0.0 1023136
03:00+4ююв249534 0.0 102164
06:00+2юв2597100 0.0 102087
09:00+6ююв2485100 0.0 1019150
12:00+10ю2572100 0.0 1018428
15:00+11ю3667100 0.0 1018679
18:00+10ююз257269 0.0 1017196
21:00+7ююз228585 0.0 101838
14 апреля, ср
ср1400:00+7ю118580 0.0 101813
03:00+6ююв118795 0.0 101712
06:00+4юв239286 0.0 101666
09:00+7ююв128291 0.0 1016148
12:00+11ююз246799 0.0 1015585
15:00+11зюз3570100 0.0 1014749
18:00+7з4977100 0.0 1014659
21:00+5з4870100 0.0 1015919